W7KKE-3 Weather Reports


Display with metric or nautical units.
time (UTC)temp
F
wind
direction
speed
MPH
gust
MPH
rain 1hr
in
rain 24hr
in
rain mn
in
humidity
%
barometer
mb
20141124063237 52 0 0.0 0.0 0.00 0.02 0.00 95 1028.7
20141124061237 52 0 0.0 0.0 0.00 0.02 0.00 95 1028.5
20141124060737 52 0 0.0 0.0 0.00 0.02 0.00 95 1028.6
20141124060237 52 0 0.0 0.0 0.00 0.02 0.00 95 1028.5
20141124055737 52 0 0.0 0.0 0.00 0.02 0.00 95 1028.4
20141124055237 52 0 0.0 0.0 0.00 0.02 0.00 95 1028.3
20141124054737 52 0 0.0 0.0 0.00 0.02 0.00 94 1028.0
20141124054237 52 0 0.0 0.0 0.00 0.02 0.00 94 1028.0
20141124053737 52 0 0.0 0.0 0.00 0.02 0.00 94 1027.9
20141124053238 52 0 0.0 0.0 0.00 0.02 0.00 94 1027.9
20141124052737 53 0 0.0 0.0 0.00 0.02 0.00 94 1028.1
20141124052238 53 0 0.0 0.0 0.00 0.02 0.00 94 1028.1
20141124051737 53 0 0.0 0.0 0.00 0.02 0.00 94 1028.1
20141124051237 53 0 0.0 0.0 0.00 0.02 0.00 94 1028.0
20141124045737 54 0 0.0 0.0 0.00 0.02 0.00 94 1028.2
20141124045237 54 0 0.0 3.0 0.00 0.02 0.00 94 1028.3
20141124044738 54 0 0.0 3.0 0.00 0.02 0.00 94 1028.3
20141124044237 54 93 0.0 3.0 0.00 0.02 0.00 94 1028.3
20141124043738 54 0 0.0 0.0 0.00 0.02 0.00 94 1028.3
20141124043237 54 0 0.0 4.0 0.00 0.02 0.00 94 1028.4
20141124042739 54 71 0.0 4.0 0.00 0.02 0.00 94 1028.4
20141124042238 53 60 2.0 4.0 0.00 0.02 0.00 94 1028.5
20141124041738 53 0 0.0 0.0 0.00 0.02 0.00 94 1028.6
20141124041238 53 0 0.0 0.0 0.00 0.02 0.00 94 1028.5
20141124040738 53 0 0.0 0.0 0.00 0.02 0.00 94 1028.4
20141124040238 54 0 0.0 0.0 0.00 0.02 0.00 93 1028.4
20141124035738 54 0 0.0 3.0 0.00 0.02 0.00 93 1028.4
20141124035237 54 0 0.0 3.0 0.00 0.02 0.00 93 1028.3
20141124034737 54 70 0.0 3.0 0.00 0.02 0.00 93 1028.2
20141124034237 54 67 1.0 2.0 0.00 0.02 0.00 93 1028.2
20141124033738 54 0 0.0 0.0 0.00 0.02 0.00 93 1028.2
20141124033238 55 0 0.0 0.0 0.00 0.02 0.00 93 1028.2
20141124032737 55 0 0.0 0.0 0.00 0.02 0.00 93 1028.0
20141124032238 55 0 0.0 0.0 0.00 0.02 0.00 92 1028.0
20141124031738 55 0 0.0 3.0 0.00 0.02 0.00 92 1028.0
20141124031238 56 0 0.0 3.0 0.00 0.02 0.00 92 1028.0
20141124030738 56 326 0.0 3.0 0.00 0.02 0.00 92 1028.0
20141124030238 56 315 0.0 6.0 0.00 0.02 0.00 92 1028.0
20141124025738 56 305 2.0 6.0 0.00 0.02 0.00 92 1028.1
20141124025239 56 259 4.0 6.0 0.00 0.02 0.00 92 1027.8
20141124024738 56 278 3.0 8.0 0.00 0.02 0.00 92 1027.8
20141124024238 57 274 3.0 8.0 0.00 0.02 0.00 92 1027.8
20141124023737 57 264 6.0 8.0 0.00 0.02 0.00 92 1027.8
20141124023237 57 236 5.0 7.0 0.00 0.02 0.00 92 1027.9
20141124022738 57 273 4.0 8.0 0.00 0.02 0.00 92 1027.8
20141124022237 57 266 4.0 8.0 0.00 0.02 0.00 92 1027.8
20141124021738 57 273 4.0 8.0 0.00 0.02 0.00 92 1027.9
20141124021238 57 273 6.0 9.0 0.00 0.02 0.00 92 1027.9
20141124020737 57 275 2.0 9.0 0.00 0.02 0.00 92 1028.0
20141124020238 57 274 6.0 9.0 0.00 0.02 0.00 92 1028.0
20141124015737 57 261 5.0 9.0 0.00 0.02 0.00 92 1028.0
20141124015237 57 263 5.0 9.0 0.00 0.02 0.00 92 1027.9
20141124014738 57 267 4.0 10.0 0.00 0.02 0.00 92 1027.8
20141124014237 57 238 6.0 10.0 0.00 0.02 0.00 92 1027.8
20141124013738 57 277 5.0 10.0 0.00 0.02 0.00 92 1027.8
20141124013238 57 225 5.0 12.0 0.00 0.02 0.00 92 1027.7
20141124012738 57 256 6.0 12.0 0.00 0.02 0.00 92 1027.6
20141124012237 57 306 7.0 12.0 0.00 0.02 0.00 92 1027.6
20141124011737 57 264 4.0 12.0 0.00 0.02 0.00 92 1027.5
20141124011237 57 268 7.0 14.0 0.00 0.02 0.00 92 1027.6
20141124010737 57 273 7.0 14.0 0.00 0.02 0.00 92 1027.6
20141124010238 57 256 5.0 14.0 0.00 0.02 0.00 91 1027.6
20141124005738 57 259 8.0 12.0 0.00 0.02 0.00 91 1027.7
20141124005238 57 285 6.0 10.0 0.00 0.02 0.00 91 1027.6
20141124004737 57 236 4.0 13.0 0.00 0.02 0.00 91 1027.6
20141124004238 57 264 6.0 13.0 0.00 0.02 0.00 91 1027.6
20141124003737 57 222 3.0 13.0 0.00 0.02 0.00 91 1027.6
20141124003237 57 225 5.0 22.0 0.00 0.02 0.00 91 1027.6
20141124002737 57 271 8.0 22.0 0.00 0.02 0.00 91 1027.6
20141124002237 57 208 6.0 22.0 0.00 0.02 0.00 91 1027.6
20141124001737 57 207 10.0 14.0 0.00 0.02 0.00 91 1027.7
20141124001238 58 249 8.0 14.0 0.00 0.02 0.00 91 1027.6
20141124000737 57 229 9.0 14.0 0.00 0.02 0.00 91 1027.4
20141124000237 58 222 7.0 18.0 0.00 0.02 0.00 90 1027.5
20141123235737 58 233 11.0 18.0 0.00 0.02 0.00 90 1027.2
20141123235237 58 221 10.0 18.0 0.00 0.02 0.00 90 1027.1
20141123234738 58 225 11.0 19.0 0.00 0.02 0.00 90 1027.1
20141123234237 58 249 9.0 19.0 0.00 0.02 0.00 90 1027.0
20141123233737 58 243 10.0 19.0 0.00 0.02 0.00 90 1027.1
20141123233237 58 247 10.0 14.0 0.00 0.02 0.00 90 1027.0
20141123232737 58 184 7.0 14.0 0.00 0.02 0.00 90 1027.0
20141123232237 58 224 5.0 14.0 0.00 0.02 0.00 90 1027.0
20141123231737 58 245 6.0 14.0 0.00 0.02 0.00 90 1027.0
20141123231237 58 236 6.0 12.0 0.00 0.02 0.00 90 1027.2
20141123230737 58 166 6.0 16.0 0.00 0.02 0.00 90 1027.1
20141123230237 58 173 7.0 16.0 0.00 0.29 0.00 90 1027.0
20141123225737 58 232 8.0 16.0 0.00 0.29 0.00 90 1027.0
20141123225237 58 210 7.0 15.0 0.00 0.29 0.00 90 1027.1
20141123224737 58 212 9.0 15.0 0.00 0.29 0.00 90 1027.1
20141123224237 58 207 5.0 14.0 0.00 0.29 0.00 90 1027.1
20141123223739 58 183 6.0 17.0 0.00 0.29 0.00 90 1027.0
20141123223237 58 190 6.0 17.0 0.00 0.29 0.00 89 1027.0
20141123222737 58 242 5.0 17.0 0.00 0.29 0.00 89 1026.9
20141123222238 58 200 8.0 19.0 0.00 0.29 0.00 89 1027.0
20141123221737 58 159 7.0 19.0 0.00 0.29 0.00 89 1027.1
20141123221238 58 210 7.0 19.0 0.00 0.29 0.00 89 1027.0
20141123220737 58 214 9.0 16.0 0.00 0.29 0.00 89 1027.1
20141123220237 58 169 7.0 16.0 0.00 0.41 0.00 89 1027.0
20141123215737 58 208 7.0 13.0 0.00 0.41 0.00 89 1027.0
20141123215237 58 204 9.0 17.0 0.00 0.41 0.00 90 1026.9
20141123214737 58 210 10.0 17.0 0.00 0.41 0.00 89 1027.1
20141123214238 58 228 5.0 17.0 0.00 0.41 0.00 89 1027.1
20141123213737 58 156 8.0 17.0 0.00 0.41 0.00 89 1027.1
20141123213237 58 155 7.0 17.0 0.00 0.41 0.00 89 1027.1
20141123212737 58 151 8.0 17.0 0.00 0.41 0.00 89 1027.1
20141123212237 58 193 7.0 17.0 0.00 0.41 0.00 89 1027.1
20141123211737 58 121 6.0 17.0 0.00 0.41 0.00 89 1027.1
20141123211237 58 240 7.0 16.0 0.00 0.41 0.00 89 1027.1
20141123210737 58 138 5.0 16.0 0.00 0.41 0.00 90 1027.1
20141123210237 57 193 9.0 13.0 0.00 0.41 0.00 90 1027.2
20141123205737 57 263 7.0 12.0 0.00 0.41 0.00 90 1027.2
20141123205237 57 235 7.0 17.0 0.00 0.41 0.00 90 1027.3
20141123204737 57 149 7.0 17.0 0.00 0.41 0.00 90 1027.3
20141123204237 57 172 5.0 17.0 0.00 0.41 0.00 90 1027.2
20141123203738 57 186 5.0 18.0 0.00 0.41 0.00 90 1027.2
20141123203237 57 219 5.0 18.0 0.00 0.41 0.00 90 1027.1
20141123202739 57 238 6.0 18.0 0.00 0.41 0.00 90 1027.1
20141123202237 58 162 9.0 17.0 0.00 0.41 0.00 90 1027.2
20141123200737 58 141 9.0 22.0 0.00 0.41 0.00 90 1027.0
20141123200237 58 159 11.0 20.0 0.00 0.41 0.00 90 1027.1
20141123195737 58 147 10.0 22.0 0.00 0.41 0.00 90 1027.0
20141123195237 58 169 8.0 22.0 0.00 0.41 0.00 90 1027.0
20141123193237 58 131 8.0 23.0 0.00 0.41 0.00 91 1027.3
20141123192737 57 154 11.0 23.0 0.00 0.41 0.00 91 1027.3
20141123192237 57 145 9.0 23.0 0.00 0.41 0.00 91 1027.4
20141123190737 57 131 7.0 24.0 0.00 0.41 0.00 92 1027.5
20141123190237 57 134 8.0 24.0 0.00 0.41 0.00 92 1027.7
20141123185737 57 162 10.0 24.0 0.00 0.41 0.00 92 1027.7
20141123185237 57 137 11.0 23.0 0.00 0.41 0.00 92 1027.7
20141123184737 57 137 12.0 24.0 0.00 0.41 0.00 92 1027.8
20141123182737 56 162 9.0 20.0 0.00 0.41 0.00 92 1027.6
20141123182238 56 191 12.0 20.0 0.00 0.41 0.00 92 1027.6
20141123181737 56 158 12.0 22.0 0.00 0.41 0.00 93 1027.6
20141123181237 56 173 10.0 22.0 0.00 0.41 0.00 93 1027.6
20141123175737 55 175 9.0 16.0 0.00 0.41 0.00 92 1027.4
20141123175237 55 155 5.0 16.0 0.00 0.41 0.00 92 1027.4
20141123174737 55 117 7.0 16.0 0.00 0.41 0.00 92 1027.3
20141123173237 55 180 7.0 14.0 0.00 0.41 0.00 93 1027.4
20141123172737 55 144 6.0 14.0 0.00 0.41 0.00 93 1027.3
20141123172237 55 186 9.0 14.0 0.00 0.41 0.00 93 1027.2
20141123171737 54 112 7.0 12.0 0.00 0.41 0.00 93 1027.3
20141123171237 54 140 2.0 12.0 0.00 0.41 0.00 93 1027.2
20141123170737 54 133 3.0 8.0 0.00 0.41 0.00 93 1027.3
20141123170237 54 105 5.0 9.0 0.00 0.41 0.00 94 1027.3
20141123165737 54 138 0.0 9.0 0.00 0.41 0.00 94 1027.4
20141123165236 54 147 1.0 9.0 0.00 0.41 0.00 94 1027.4
20141123164736 53 128 0.0 7.0 0.00 0.41 0.00 94 1027.3
20141123164237 53 120 2.0 12.0 0.00 0.41 0.00 94 1027.2
20141123163739 53 161 5.0 12.0 0.00 0.41 0.00 94 1027.1
20141123163237 53 126 4.0 12.0 0.00 0.41 0.00 94 1027.1
20141123162736 53 135 8.0 10.0 0.00 0.41 0.00 94 1027.2
20141123162237 53 148 6.0 10.0 0.00 0.41 0.00 94 1027.2
20141123161736 53 43 5.0 10.0 0.00 0.41 0.00 94 1027.3
20141123161237 53 112 5.0 13.0 0.00 0.41 0.00 94 1027.3
20141123160737 53 145 6.0 13.0 0.00 0.41 0.00 94 1027.4
20141123160237 53 149 4.0 13.0 0.00 0.41 0.00 94 1027.7
20141123155736 53 137 1.0 12.0 0.00 0.41 0.00 94 1027.7
20141123155236 53 172 5.0 12.0 0.00 0.41 0.00 94 1027.8
20141123154736 53 142 3.0 12.0 0.00 0.41 0.00 94 1027.7
20141123154236 52 78 5.0 12.0 0.00 0.41 0.00 94 1027.9
20141123153737 52 65 1.0 10.0 0.00 0.41 0.00 94 1027.9
20141123153236 52 149 5.0 9.0 0.00 0.41 0.00 94 1028.0
20141123152736 52 110 2.0 8.0 0.00 0.41 0.00 94 1028.1
20141123152236 52 99 1.0 7.0 0.00 0.41 0.00 94 1028.1
20141123151736 52 106 4.0 7.0 0.00 0.41 0.00 94 1027.9
20141123151236 52 163 4.0 7.0 0.00 0.41 0.00 94 1028.1
20141123150736 52 142 3.0 6.0 0.00 0.41 0.00 94 1028.1
20141123150236 52 182 1.0 10.0 0.00 0.41 0.00 94 1028.1
20141123145736 52 96 3.0 10.0 0.00 0.41 0.00 94 1028.1
20141123145236 52 126 1.0 10.0 0.00 0.41 0.00 94 1028.0
20141123144736 52 133 3.0 9.0 0.00 0.41 0.00 94 1027.8
20141123144237 52 89 4.0 9.0 0.00 0.41 0.00 94 1027.8
20141123143736 52 123 5.0 11.0 0.00 0.41 0.00 94 1027.7
20141123143236 52 148 6.0 11.0 0.00 0.41 0.00 94 1027.5
20141123142737 52 124 2.0 11.0 0.00 0.41 0.00 94 1027.5
20141123142236 52 158 3.0 9.0 0.00 0.41 0.00 94 1027.5
20141123141736 52 158 2.0 6.0 0.00 0.41 0.00 94 1027.4
20141123141236 52 117 2.0 4.0 0.00 0.41 0.00 94 1027.5
20141123140736 52 109 0.0 12.0 0.00 0.41 0.00 94 1027.5
20141123140236 52 116 2.0 12.0 0.00 0.41 0.00 94 1027.5
20141123135736 52 147 3.0 12.0 0.00 0.41 0.00 94 1027.4
20141123135236 52 82 4.0 12.0 0.00 0.41 0.00 94 1027.3
20141123134736 52 128 5.0 12.0 0.00 0.41 0.00 94 1027.2
20141123134236 52 141 5.0 12.0 0.00 0.41 0.00 94 1027.2
20141123133736 52 173 4.0 10.0 0.00 0.41 0.00 94 1027.4
20141123133236 52 85 6.0 9.0 0.00 0.41 0.00 94 1027.3
20141123132736 52 131 4.0 10.0 0.00 0.41 0.00 94 1027.3
20141123132238 51 77 3.0 10.0 0.00 0.41 0.00 94 1027.4
20141123131736 51 163 3.0 10.0 0.00 0.41 0.00 94 1027.2
20141123131236 51 61 2.0 9.0 0.00 0.41 0.00 94 1027.3
20141123130736 51 75 4.0 9.0 0.00 0.41 0.00 94 1027.3
20141123130236 51 98 5.0 7.0 0.00 0.41 0.00 94 1027.2
20141123125736 51 109 4.0 11.0 0.00 0.41 0.00 94 1027.2
20141123125236 51 130 2.0 11.0 0.00 0.41 0.00 94 1027.2
20141123124736 51 119 2.0 11.0 0.00 0.41 0.00 94 1027.2
20141123124236 51 75 5.0 7.0 0.00 0.41 0.00 94 1027.2
20141123123736 51 114 0.0 7.0 0.00 0.41 0.00 94 1027.2
20141123123236 51 88 3.0 7.0 0.00 0.41 0.00 94 1027.1
20141123122736 51 161 4.0 7.0 0.00 0.41 0.00 94 1027.1
20141123122236 51 74 2.0 11.0 0.00 0.41 0.00 94 1027.1
20141123121736 51 89 3.0 11.0 0.00 0.41 0.00 94 1027.2
20141123121236 51 155 4.0 11.0 0.00 0.41 0.00 94 1027.1
20141123120736 51 82 4.0 10.0 0.00 0.41 0.00 94 1027.0
20141123120237 51 85 4.0 10.0 0.00 0.47 0.00 94 1027.0
20141123115736 51 96 3.0 7.0 0.00 0.47 0.00 94 1026.9
20141123115238 51 102 3.0 7.0 0.00 0.47 0.00 94 1027.0
20141123114737 51 103 5.0 9.0 0.00 0.47 0.00 94 1027.0
20141123114236 51 68 4.0 9.0 0.00 0.47 0.00 94 1026.8
20141123113736 51 91 3.0 9.0 0.00 0.47 0.00 94 1026.9
20141123113236 51 33 4.0 8.0 0.00 0.47 0.00 93 1026.9
20141123112736 51 78 3.0 8.0 0.00 0.47 0.00 93 1026.9
20141123112236 51 85 6.0 8.0 0.00 0.47 0.00 93 1026.9
20141123111736 51 74 6.0 7.0 0.00 0.47 0.00 93 1027.0
20141123111238 51 88 4.0 9.0 0.00 0.47 0.00 93 1027.1
20141123110736 51 133 4.0 9.0 0.00 0.47 0.00 93 1027.0
20141123110236 51 96 1.0 9.0 0.00 0.47 0.00 93 1027.1
20141123105736 51 78 5.0 9.0 0.00 0.47 0.00 93 1027.0
20141123105238 51 137 5.0 10.0 0.00 0.47 0.00 93 1027.0
20141123104736 51 116 5.0 10.0 0.00 0.47 0.00 93 1027.1
20141123104236 51 148 1.0 10.0 0.00 0.47 0.00 94 1027.2
20141123103736 51 74 6.0 9.0 0.00 0.47 0.00 94 1027.2
20141123103236 51 121 1.0 9.0 0.00 0.47 0.00 94 1027.2
20141123102736 51 133 0.0 9.0 0.00 0.47 0.00 94 1027.1
20141123102236 51 110 5.0 5.0 0.00 0.47 0.00 94 1027.1
20141123101736 52 84 0.0 7.0 0.00 0.47 0.00 93 1027.0
20141123101236 52 92 1.0 7.0 0.00 0.47 0.00 94 1026.8
20141123100736 52 74 2.0 7.0 0.00 0.47 0.00 94 1026.8
20141123100236 52 96 2.0 8.0 0.00 0.49 0.00 94 1026.9
20141123095736 52 79 4.0 8.0 0.00 0.49 0.00 93 1026.8
20141123095238 52 78 4.0 8.0 0.00 0.49 0.00 93 1026.7
20141123094736 52 98 4.0 6.0 0.00 0.49 0.00 93 1026.7
20141123094236 52 88 2.0 6.0 0.00 0.49 0.00 93 1026.7
20141123093736 52 60 1.0 6.0 0.00 0.49 0.00 93 1026.8
20141123093236 53 81 0.0 6.0 0.00 0.49 0.00 93 1026.9
20141123092736 53 81 2.0 6.0 0.00 0.49 0.00 92 1026.8
20141123091236 54 208 0.0 9.0 0.00 0.49 0.00 93 1026.5
20141123090736 54 190 5.0 9.0 0.00 0.49 0.00 93 1026.4
20141123090236 54 205 6.0 9.0 0.00 0.51 0.00 93 1026.4
20141123085736 54 224 6.0 9.0 0.00 0.51 0.00 94 1026.4
20141123085236 53 207 3.0 10.0 0.00 0.51 0.00 94 1026.5
20141123084736 53 229 3.0 10.0 0.00 0.51 0.00 94 1026.6
20141123084236 53 222 4.0 10.0 0.00 0.51 0.00 94 1026.6
20141123083736 52 254 6.0 9.0 0.00 0.51 0.00 94 1026.5
20141123083237 52 203 3.0 9.0 0.01 0.51 0.00 94 1026.5
20141123082736 51 225 1.0 9.0 0.01 0.51 0.00 94 1026.4
20141123081238 51 0 0.0 6.0 0.01 0.51 0.00 93 1026.6
20141123080736 51 91 0.0 6.0 0.01 0.51 0.00 93 1026.5
20141123080236 51 110 1.0 6.0 0.02 0.52 0.00 93 1026.3
20141123075736 51 78 2.0 5.0 0.02 0.52 0.51 93 1026.2
20141123075236 51 81 2.0 5.0 0.02 0.52 0.51 93 1026.1
20141123073236 52 231 0.0 12.0 0.01 0.52 0.51 93 1025.8
20141123072736 52 242 7.0 12.0 0.01 0.52 0.50 94 1025.8
20141123072238 51 252 7.0 12.0 0.01 0.52 0.50 94 1025.9
20141123071736 51 219 4.0 9.0 0.01 0.52 0.50 94 1025.8
20141123071236 50 152 5.0 7.0 0.01 0.52 0.50 94 1025.8
20141123070736 50 77 2.0 7.0 0.01 0.52 0.50 94 1025.8
20141123070236 50 75 5.0 7.0 0.00 0.55 0.49 94 1025.5
20141123065737 50 64 4.0 7.0 0.00 0.55 0.49 94 1025.4
20141123065237 50 70 3.0 3.0 0.00 0.55 0.49 93 1025.3